Meteo Giornale » Osservazioni meteo Gran Bretagna » Boulmer

ore: 14:50 - Osservazioni Meteo Boulmer
Lat. 55° 25' N Lon. 1° 36' W Alt. 23 metri s.l.m.

molto_nuvoloso Europe/London

22 °C

Molto Nuvoloso

Temp. 24 Ore

15 °C

22 °C

Ovest

42.6 Km/h

Dew point 14 °C

Umidità 60 %

Visibilità  10 Km

Il sole sorge alle ore 06:54

Il sole tramonta alle ore 19:02

Data e Ora Cielo e Fenomeni T °C DP °C Um. % Pres. hPa Vis. km Vento km/h
Oggi h: 14:50 molto_nuvoloso Molto Nuvoloso 22 14 60 1006 10 O 42.6
Oggi h: 13:50 molto_nuvoloso Molto Nuvoloso 22 15 64 1006 10 O 37
Oggi h: 12:50 molto_nuvoloso Molto Nuvoloso 21 15 68 1006 10 O/SO 35.2
Oggi h: 11:50 poco_nuvoloso Poco Nuvoloso 20 14 68 1006 10 O/SO 25.9
Oggi h: 10:50 poco_nuvoloso Poco Nuvoloso 19 13 68 1006 10 O/SO 27.8
Oggi h: 09:50 molto_nuvoloso Molto Nuvoloso 18 14 77 1007 10 SO 25.9
Oggi h: 07:50 molto_nuvoloso Molto Nuvoloso 15 12 82 1007 10 SO 31.5
Oggi h: 06:50 coperto Coperto 15 11 76 1008 10 SO 29.6
Oggi h: 04:50 molto_nuvoloso Molto Nuvoloso 15 11 76 1008 10 SO 25.9
Oggi h: 03:50 molto_nuvoloso Molto Nuvoloso 15 11 76 1009 10 O 20.3
Oggi h: 02:50 molto_nuvoloso Molto Nuvoloso 15 11 76 1010 10 O/SO 27.8
Oggi h: 01:50 molto_nuvoloso Molto Nuvoloso 15 12 82 1010 10 SO 31.5
Oggi h: 00:50 molto_nuvoloso Molto Nuvoloso 15 12 82 1012 10 SO 16.7
Ieri h: 23:50 molto_nuvoloso Molto Nuvoloso 15 13 87 1012 10 SO 18.5
Ieri h: 22:50 molto_nuvoloso Molto Nuvoloso 15 12 82 1013 10 SO 20.3
Ieri h: 20:50 molto_nuvoloso Molto Nuvoloso 16 12 77 1014 10 O/SO 14.8
Ieri h: 19:50 molto_nuvoloso Molto Nuvoloso 16 12 77 1014 10 O/SO 14.8
Ieri h: 18:50 molto_nuvoloso Molto Nuvoloso 17 12 72 1014 10 O 14.8
Ieri h: 17:50 molto_nuvoloso Molto Nuvoloso 17 12 72 1014 10 O 18.5
Ieri h: 16:50 molto_nuvoloso Molto Nuvoloso 17 12 72 1014 10 O 20.3
Ieri h: 15:50 molto_nuvoloso Molto Nuvoloso 18 11 63 1014 10 O 25.9